Presure
159 124 103 116 108 144 139 134 145 109 139 146 120 125 136 131 134 140 140 150 206 181 295 310 228 235 273 290 265 289 242 296 285 207 259 222 248 189 156 177 108 182 181
128 105 109 108 138 123 120 141 109 123 142 112 149 131 135 138 157 137 184 227 223 311 321 291 310 263 306 279 255 291 212 250 255 297 269 226 269 269 254 229 202 221 183
135 110 107 124 110 116 126 130 147 140 133 141 134 139 151 173 144 239 294 279 292 309 314 305 300 287 289 289 285 287 309 297 293 297 279 284 271 233 253 261 253 245 172
111 123 126 123 116 127 126 137 157 120 144 157 127 155 177 176 209 298 262 262 242 264 227 251 305 295 280 273 271 276 285 296 303 296 280 286 268 274 273 283 269 249 242
124 125 124 126 120 148 137 136 157 157 173 148 154 159 171 179 260 245 239 252 239 252 248 244 249 249 285 269 266 263 279 287 295 297 296 285 310 272 225 211 216 260 250
123 123 169 170 132 119 167 165 143 134 169 160 169 174 196 223 261 245 237 238 232 227 219 151 136 230 232 238 267 260 274 283 286 303 286 269 248 209 200 226 194 212 223
150 122 155 132 144 159 165 127 138 160 155 153 173 195 252 231 236 233 211 214 216 218 216 216 219 217 217 222 226 227 217 269 269 277 279 248 204 166 178 197 212 207 170
136 137 118 147 150 147 146 147 151 159 163 165 225 242 234 223 232 223 217 209 213 214 208 204 206 214 208 214 213 215 226 250 263 266 263 214 206 194 178 185 183 205 221
133 152 127 137 147 157 130 153 159 173 160 201 235 226 220 223 204 210 198 188 192 195 201 201 204 202 179 207 203 199 206 217 254 275 264 207 210 199 202 201 201 195 219
146 126 161 127 150 159 161 163 160 165 190 230 199 217 208 208 205 209 211 205 202 200 190 195 193 200 203 197 205 204 209 201 214 248 277 270 202 191 204 210 222 207 158
119 130 170 162 155 168 162 160 174 171 198 205 215 215 204 196 193 196 184 194 196 189 192 187 182 192 192 202 207 185 200 206 194 208 225 258 278 226 210 195 193 183 209
139 159 142 157 159 167 173 169 182 228 222 218 208 203 198 187 184 186 179 181 186 186 173 184 180 179 187 198 186 196 197 203 199 192 203 212 259 272 228 211 218 230 209
155 162 162 161 162 163 165 210 226 218 209 205 203 196 191 186 184 186 190 196 195 186 192 180 199 163 169 188 193 193 189 194 197 203 211 195 209 235 238 222 216 221 205
136 134 163 161 170 202 218 200 218 213 207 199 201 197 192 191 187 205 197 175 198 187 172 183 189 194 191 172 178 193 182 194 180 197 186 190 195 194 212 234 208 213 203
168 161 165 186 188 220 205 212 196 207 203 196 198 191 183 178 169 151 175 202 200 197 197 197 181 196 187 184 184 183 189 183 189 194 188 196 200 194 190 202 222 214 199
175 197 212 219 209 210 209 185 205 202 211 198 207 214 201 205 211 131 207 192 190 194 185 192 193 186 183 189 193 189 187 183 187 185 194 165 195 197 193 194 192 213 214
224 207 181 214 204 181 208 207 211 211 205 196 199 201 207 197 186 187 177 190 187 184 184 175 190 182 190 194 195 196 193 178 188 182 191 220 182 196 199 200 190 188 216
223 216 177 161 204 217 217 217 220 211 197 205 201 118 191 193 193 182 182 145 177 190 191 186 191 194 193 197 196 199 204 167 160 214 220 222 224 211 192 212 198 196 183
221 232 227 226 220 223 212 207 207 203 199 194 192 182 184 184 183 178 186 187 196 180 203 202 201 203 189 206 208 209 212 211 209 201 213 163 189 208 197 219 203 190 197
221 217 209 203 197 205 211 197 192 168 187 173 184 190 172 180 179 179 141 140 209 207 208 206 206 206 202 204 204 202 205 204 162 206 206 157 156 145 151 220 219 197 173
204 193 205 214 213 190 186 188 189 189 187 180 176 176 170 184 184 182 127 202 136 210 204 198 203 199 201 202 199 201 194 198 202 230 215 210 210 206 210 148 215 194 224
195 216 216 192 189 186 181 166 182 186 183 184 182 176 184 189 159 148 118 199 198 196 204 207 202 202 199 200 221 202 204 222 205 196 224 213 126 150 211 161 204 206 213
207 210 191 185 183 181 178 179 185 189 174 186 177 161 124 188 199 151 203 204 152 203 161 213 222 214 218 224 221 223 179 226 206 212 213 221 228 227 216 187 172 186 208
216 193 181 182 181 184 183 183 182 190 187 186 185 190 193 157 194 195 122 197 206 215 218 217 215 225 225 209 207 211 225 233 231 223 218 227 241 233 231 225 206 240 220
184 184 185 182 189 186 183 177 189 182 152 188 192 193 110 202 202 202 204 211 214 213 225 219 226 221 231 232 235 229 247 242 250 156 278 272 262 260 256 228 224 241 251
182 183 180 183 187 183 182 185 183 184 191 189 190 196 197 200 196 199 166 126 125 128 171 172 223 230 229 243 243 258 256 271 268 287 340 205 359 317 240 330 333 331 339
Wind_Speed
69 58 43 60 55 71 76 78 81 63 84 93 81 88 96 92 93 99 99 106 128 112 72 57 86 86 68 63 74 62 85 62 66 94 72 85 84 111 101 114 73 116 119
58 44 52 54 79 70 72 87 62 81 93 71 99 90 95 100 108 99 134 121 113 37 34 51 34 66 40 52 73 48 70 76 72 56 62 75 64 67 81 97 101 105 119
59 52 50 71 55 65 75 80 92 92 85 93 90 97 106 125 104 116 51 55 30 24 25 27 29 32 30 29 32 32 36 43 46 47 53 55 58 65 66 71 75 77 106
55 70 73 70 62 73 75 76 93 73 91 101 88 111 132 131 133 24 44 36 47 25 57 32 18 20 22 26 28 28 27 32 34 40 46 46 46 51 50 54 56 62 65
69 70 71 75 66 86 82 85 97 98 115 103 104 111 127 132 30 51 43 14 23 17 16 19 20 19 16 19 20 20 21 22 24 28 30 31 27 27 32 45 50 51 57
66 71 93 93 80 71 95 98 91 94 123 113 133 137 121 88 21 27 26 15 13 14 23 61 60 20 23 25 21 19 18 15 16 13 18 12 20 15 26 41 65 67 60
86 72 91 84 89 98 105 86 97 112 106 114 135 129 23 44 21 21 42 34 27 18 16 16 15 13 14 21 24 23 25 18 11 7 13 26 40 34 58 61 52 66 71
79 77 69 91 91 97 99 99 99 112 124 124 74 27 27 38 25 33 32 35 23 18 20 24 19 18 13 12 12 21 26 21 13 4 20 45 51 57 73 76 75 59 67
80 91 81 87 94 105 87 103 114 129 117 102 29 35 34 30 46 32 41 44 42 40 30 26 24 21 41 20 17 17 14 23 16 4 19 39 44 53 65 72 70 70 59
84 80 96 80 91 107 114 122 113 124 117 40 95 40 45 43 42 34 32 32 32 31 38 31 31 29 25 21 22 17 14 9 17 14 9 31 47 57 63 68 47 56 64
72 82 113 106 102 123 116 113 133 119 114 75 43 38 41 43 44 44 45 41 37 35 36 34 36 31 31 31 28 26 18 10 11 9 12 10 27 50 61 53 59 60 54
82 98 86 101 113 124 129 126 135 43 45 44 51 47 45 48 46 46 51 48 44 41 42 42 40 40 33 30 30 23 21 19 12 14 3 6 14 30 53 53 60 49 57
94 113 115 112 117 118 121 82 43 52 53 52 52 52 49 49 51 53 52 50 50 48 45 46 42 46 44 33 32 32 26 24 21 17 21 16 7 13 33 48 47 52 50
83 82 117 108 121 113 55 96 47 50 51 55 53 52 50 51 55 54 49 52 51 50 48 49 46 42 43 45 41 36 36 33 34 24 31 25 22 23 15 36 46 49 53
120 109 123 136 123 56 77 55 77 54 55 56 57 57 54 58 59 61 53 51 49 49 48 49 50 44 46 47 46 42 41 41 37 34 32 32 28 29 34 23 30 52 52
133 97 77 66 63 69 61 92 59 59 53 56 56 53 55 53 51 56 48 50 52 52 52 51 51 50 50 50 51 50 48 47 47 45 39 50 39 38 38 38 39 32 55
67 89 111 61 73 85 60 58 54 55 51 54 54 55 51 49 58 53 58 55 57 57 57 52 59 54 59 59 58 57 55 54 52 51 53 52 53 48 46 45 50 50 37
48 53 75 94 75 58 54 56 51 50 51 51 51 49 58 57 59 59 60 41 59 67 67 66 69 69 69 70 68 68 69 55 52 66 64 60 55 53 55 52 53 53 60
53 36 36 45 51 50 47 48 47 46 47 50 52 56 58 56 62 65 67 66 71 62 71 71 72 74 65 75 74 73 72 71 71 69 69 58 60 61 61 56 63 63 60
38 38 42 48 56 50 43 49 49 60 54 60 60 56 61 60 64 65 47 52 73 72 73 72 73 75 75 76 75 74 76 77 60 76 76 60 62 60 57 68 63 70 72
47 60 48 44 44 51 54 54 57 58 57 60 64 64 67 69 72 70 55 78 51 78 76 76 77 76 79 81 79 78 77 82 83 84 88 81 80 76 78 66 71 78 74
54 45 42 49 56 58 59 68 62 64 65 65 67 68 72 74 63 61 52 81 83 84 85 84 82 82 81 85 87 85 83 82 87 85 87 92 65 75 85 74 80 78 77
48 44 51 56 61 65 66 66 67 68 69 72 73 65 54 83 87 65 87 88 68 88 72 91 94 90 90 94 95 95 65 90 88 91 94 95 96 98 98 89 84 87 86
47 50 60 62 64 67 70 69 72 73 75 77 80 85 89 71 91 93 60 92 97 99 101 99 95 103 103 89 90 95 107 112 108 96 100 105 114 106 103 99 88 102 103
53 59 62 65 65 68 73 76 80 79 64 86 90 93 58 97 98 100 100 102 104 104 110 107 111 106 116 115 115 114 123 119 122 60 117 112 112 117 117 107 106 111 114
61 64 68 71 70 72 77 83 83 87 90 91 94 100 101 101 103 106 80 55 56 60 83 82 113 118 118 127 126 134 129 136 127 135 117 81 100 103 78 104 102 102 103
Wind_Direction
270 282 305 303 308 292 291 287 288 306 286 283 301 297 289 291 292 289 290 294 297 291 284 282 285 284 280 277 275 273 274 265 263 260 255 253 245 260 263 262 245 256 251
284 306 310 309 283 296 303 285 305 299 286 301 285 296 293 293 285 295 298 298 298 295 301 292 300 284 290 280 272 276 271 269 267 257 253 257 248 242 235 244 246 249 255
298 310 307 296 306 305 298 295 286 289 293 292 298 295 287 305 295 303 301 303 305 323 316 313 306 303 296 292 285 284 273 269 264 257 252 246 246 252 248 246 253 255 260
306 296 293 300 305 295 301 296 289 302 298 299 302 303 305 305 307 311 300 303 295 309 294 306 320 305 300 300 298 296 286 277 267 257 254 249 247 248 250 252 248 248 242
297 298 301 299 300 292 302 298 290 288 307 302 298 302 305 306 309 304 302 341 308 7 4 351 358 350 334 331 321 318 303 280 272 259 247 244 230 239 235 255 258 233 232
302 301 297 301 297 307 299 298 304 299 308 306 307 304 305 307 313 302 303 317 314 319 297 282 283 10 5 3 356 346 335 309 282 256 234 215 184 187 261 260 248 246 245
284 303 285 299 291 293 304 304 301 305 303 304 306 306 309 299 301 301 300 299 303 315 310 307 336 346 5 18 11 349 298 348 321 259 202 148 176 198 221 242 244 248 245
292 300 306 288 295 304 305 305 301 304 305 304 307 304 301 297 295 291 293 297 300 311 296 291 295 332 311 341 1 17 15 8 359 232 173 185 196 206 234 237 242 245 245
296 288 303 301 301 301 301 300 304 303 302 304 296 296 298 297 298 301 301 299 296 293 301 308 317 307 288 324 303 297 351 14 10 306 199 199 204 218 219 226 231 238 239
301 301 298 300 296 301 302 301 301 302 306 299 306 296 296 296 299 301 304 303 303 301 293 300 302 317 320 296 322 323 360 329 12 10 231 222 209 222 225 228 235 240 243
301 297 299 297 298 300 300 300 301 302 303 302 292 295 294 295 299 303 298 302 299 297 299 292 293 308 307 320 324 277 311 337 266 5 20 247 243 218 219 236 238 243 240
296 296 297 296 297 298 298 300 300 291 290 291 292 291 294 293 295 295 294 294 295 290 283 292 288 289 299 311 286 298 304 313 281 262 202 315 249 241 232 236 238 228 235
294 296 297 295 296 296 298 298 295 294 293 294 295 294 296 297 295 295 297 296 296 293 294 291 297 281 283 291 296 297 274 289 285 288 301 231 284 258 234 231 233 227 234
299 301 294 295 296 300 297 300 294 295 292 293 292 293 291 291 291 292 293 295 295 290 285 288 288 290 285 276 274 290 274 286 255 280 260 240 235 233 260 241 235 232 233
290 293 292 294 297 295 297 293 296 294 292 293 290 293 295 293 293 295 291 293 292 292 291 292 287 292 285 284 280 277 282 272 274 274 260 265 242 231 227 241 246 236 234
287 289 292 297 294 295 292 298 293 292 289 289 291 291 292 291 290 306 292 295 295 294 289 291 292 285 280 286 289 283 278 273 275 268 264 251 260 245 232 228 230 237 235
293 291 292 298 294 296 291 291 293 292 292 294 296 297 295 295 295 298 299 299 298 295 295 289 294 285 291 290 289 289 282 266 265 261 270 275 252 250 247 248 233 231 239
286 290 293 298 291 290 293 293 290 291 295 293 294 303 296 299 300 300 299 298 299 300 299 296 295 294 293 293 290 289 288 269 263 288 288 282 272 264 252 258 242 230 232
288 290 280 282 286 287 291 291 294 294 293 292 295 298 299 304 300 299 302 301 299 297 295 293 293 292 288 290 289 289 289 286 286 283 284 262 271 269 261 260 251 237 227
288 286 284 282 287 291 295 295 297 299 296 298 299 300 300 297 296 297 297 295 298 297 296 295 294 292 291 291 291 289 288 287 268 282 281 262 261 257 251 268 260 244 247
286 287 287 287 290 291 294 296 298 299 297 296 298 297 301 299 299 300 301 301 292 297 296 295 294 293 292 291 288 286 286 286 284 279 278 277 274 271 270 254 261 254 256
289 291 288 290 292 293 296 300 299 298 298 299 298 299 301 301 296 297 293 303 302 301 298 296 293 291 290 288 286 281 281 282 278 280 276 275 270 265 265 257 259 253 255
289 287 291 293 293 296 299 299 299 298 302 301 301 298 298 304 303 301 301 300 294 297 300 297 298 296 295 294 292 289 273 285 275 273 275 274 271 266 264 262 261 257 251
295 291 290 293 296 296 297 300 301 301 302 304 306 307 306 298 306 305 305 302 301 301 301 301 299 299 298 289 287 287 291 290 283 274 274 274 275 268 263 258 257 257 256
291 288 291 293 295 297 301 304 304 307 305 308 308 307 302 304 303 303 303 305 304 304 304 304 302 299 299 297 294 291 290 288 288 251 284 278 273 272 268 258 257 258 255
292 294 297 300 300 301 303 303 307 308 306 307 308 305 304 304 305 306 301 292 292 290 301 298 300 299 297 296 294 294 293 292 289 289 287 280 277 274 263 272 269 266 264